Sydney, Australia

4:33 PM AEDT on March 24, 2017 (GMT +1100)
Kingsford Smith International

Weather History for YSSY - August, 2014

Change the Weather History Date:

Thursday, August 14, 2014

  Actual Average Record
Temperature  
Mean Temperature 52 °F -  
Max Temperature 61 °F 67 °F 78 °F (1996)
Min Temperature 43 °F 48 °F 43 °F (2014)
Degree Days  
Heating Degree Days 13    
Growing Degree Days 2 (Base 50)    
Moisture  
Dew Point 41 °F    
Average Humidity 60    
Maximum Humidity 76    
Minimum Humidity 31    
Precipitation  
Precipitation 0.00 in 0.10 in - ()
Sea Level Pressure  
Sea Level Pressure 30.51 in    
Wind  
Wind Speed 8 mph ()    
Max Wind Speed 16 mph    
Max Gust Speed -    
Visibility 8.0 miles    
Events      
Averages and records for this station are not official NWS values.
T = Trace of Precipitation, MM = Missing Value Source: Averaged Metar Reports

Daily Weather History Graph

Daily Weather History Graph

Search for Another Location

Airport or City:

Trip Planner

Search our weather history database for the weather conditions in past years. The results will help you decide how hot, cold, wet, or windy it might be!

Date:

Astronomy

Aug. 14, 2014 Rise Set
Actual Time 6:35 AM AEST 5:24 PM AEST
Civil Twilight 6:10 AM AEST 5:50 PM AEST
Nautical Twilight 5:40 AM AEST 6:19 PM AEST
Astronomical Twilight 5:11 AM AEST 6:49 PM AEST
Moon 9:28 PM AEST (8/14) 8:34 AM AEST (8/14)
Length of Visible Light 11h 40m
Length of Day
10h 48m
Waning Gibbous, 84% of the Moon is Illuminated
Aug 14
Waning Gibbous
Aug 17
Last Quarter
Aug 26
New
Sep 2
First Quarter
Sep 9
Full

Hourly Weather History & Observations

Time (AEST) Temp. Windchill Dew Point Humidity Pressure Visibility Wind Dir Wind Speed Gust Speed Precip Events Conditions
12:00 AM 47 °F - 37 °F 57% 30.54 in 25 mi North 6.9 mph - -   Partly Cloudy
12:00 AM 48.2 °F - 37.4 °F 66% 30.54 in - North 6.9 mph - N/A   Clear
12:30 AM 46.4 °F 43.5 °F 37.4 °F 71% 30.51 in - NNW 5.8 mph - N/A   Clear
1:00 AM 47 °F - 36 °F 56% 30.53 in - NW 6.9 mph - -  
1:00 AM 46.4 °F 42.9 °F 35.6 °F 66% 30.51 in - NW 6.9 mph - N/A   Clear
1:30 AM 46.4 °F 42.9 °F 35.6 °F 66% 30.51 in - NW 6.9 mph - N/A   Clear
2:00 AM 46 °F - 36 °F 57% 30.53 in - NW 5.8 mph - -  
2:00 AM 46.4 °F 43.5 °F 35.6 °F 66% 30.51 in - NW 5.8 mph - N/A   Clear
2:30 AM 46.4 °F 44.3 °F 35.6 °F 66% 30.51 in - WNW 4.6 mph - N/A   Clear
3:00 AM 45 °F - 35 °F 59% 30.52 in 25 mi NNW 5.8 mph - -   Partly Cloudy
3:00 AM 44.6 °F 41.4 °F 35.6 °F 71% 30.51 in - NNW 5.8 mph - N/A   Clear
3:30 AM 42.8 °F 38.0 °F 35.6 °F 76% 30.51 in - North 8.1 mph - N/A   Clear
4:00 AM 44 °F - 36 °F 64% 30.51 in - NW 5.8 mph - -  
4:00 AM 44.6 °F 41.4 °F 35.6 °F 71% 30.51 in 6.2 mi NW 5.8 mph - N/A   Mostly Cloudy
4:30 AM 44.6 °F 40.7 °F 35.6 °F 71% 30.51 in 6.2 mi North 6.9 mph - N/A   Mostly Cloudy
5:00 AM 46 °F - 36 °F 57% 30.52 in - NW 9.2 mph - -  
5:00 AM 46.4 °F 41.9 °F 35.6 °F 66% 30.51 in 6.2 mi NW 9.2 mph - N/A   Scattered Clouds
6:00 AM 45 °F - 36 °F 62% 30.53 in 19 mi North 6.9 mph - -   Partly Cloudy
6:00 AM 44.6 °F 40.7 °F 35.6 °F 71% 30.51 in 6.2 mi North 6.9 mph - N/A   Scattered Clouds
6:30 AM 46.4 °F 42.4 °F 35.6 °F 66% 30.51 in 6.2 mi NNW 8.1 mph - N/A   Partly Cloudy
7:00 AM 47 °F - 35 °F 53% 30.53 in - NNW 9.2 mph - -  
7:00 AM 46.4 °F 41.9 °F 35.6 °F 66% 30.51 in 6.2 mi NNW 9.2 mph - N/A   Partly Cloudy
7:30 AM 48.2 °F - 35.6 °F 62% 30.54 in 6.2 mi NW 8.1 mph - N/A   Partly Cloudy
8:00 AM 51 °F - 36 °F 45% 30.55 in - NW 8.1 mph - -  
8:00 AM 50.0 °F - 35.6 °F 58% 30.54 in 6.2 mi NW 8.1 mph - N/A   Partly Cloudy
9:00 AM 54 °F - 36 °F 38% 30.56 in 16 mi NW 9.2 mph - -   Haze
9:00 AM 53.6 °F - 35.6 °F 51% 30.54 in 6.2 mi NW 9.2 mph - N/A   Partly Cloudy
9:30 AM 57.2 °F - 37.4 °F 48% 30.54 in 6.2 mi NW 9.2 mph - N/A   Partly Cloudy
10:00 AM 59 °F - 36 °F 31% 30.56 in - NW 8.1 mph - -  
10:00 AM 59.0 °F - 35.6 °F 42% 30.54 in 6.2 mi NW 8.1 mph - N/A   Partly Cloudy
11:00 AM 59 °F - 40 °F 37% 30.56 in - SW 5.8 mph - -  
11:00 AM 59.0 °F - 39.2 °F 48% 30.54 in 6.2 mi SW 5.8 mph - N/A   Scattered Clouds
12:00 PM 61 °F - 44 °F 43% 30.54 in 19 mi South 12.7 mph - -   Partly Cloudy
12:00 PM 60.8 °F - 44.6 °F 55% 30.54 in 6.2 mi South 12.7 mph - N/A   Scattered Clouds
1:00 PM 60 °F - 46 °F 49% 30.51 in - South 15.0 mph - -  
1:00 PM 60.8 °F - 46.4 °F 59% 30.51 in 6.2 mi South 15.0 mph - N/A   Partly Cloudy
2:00 PM 60 °F - 46 °F 50% 30.50 in - South 16.1 mph - -  
2:00 PM 59.0 °F - 46.4 °F 63% 30.48 in 6.2 mi South 16.1 mph - N/A   Partly Cloudy
2:30 PM 59.0 °F - 48.2 °F 67% 30.48 in 6.2 mi South 15.0 mph - N/A   Partly Cloudy
3:00 PM 59 °F - 47 °F 55% 30.50 in 19 mi South 15.0 mph - -   Partly Cloudy
3:00 PM 59.0 °F - 46.4 °F 63% 30.48 in 6.2 mi South 15.0 mph - N/A   Partly Cloudy
3:30 PM 59.0 °F - 48.2 °F 67% 30.48 in 6.2 mi South 15.0 mph - N/A   Partly Cloudy
4:00 PM 59 °F - 48 °F 58% 30.49 in - South 13.8 mph - -  
4:00 PM 59.0 °F - 48.2 °F 67% 30.48 in 6.2 mi South 13.8 mph - N/A   Partly Cloudy
4:30 PM 60.8 °F - 44.6 °F 55% 30.48 in 6.2 mi SSE 12.7 mph - N/A   Partly Cloudy
5:00 PM 59 °F - 45 °F 49% 30.50 in - South 11.5 mph - -  
5:00 PM 59.0 °F - 44.6 °F 59% 30.48 in 6.2 mi South 11.5 mph - N/A   Partly Cloudy
5:30 PM 59.0 °F - 46.4 °F 63% 30.48 in 6.2 mi South 10.4 mph - N/A   Scattered Clouds
6:00 PM 58 °F - 45 °F 53% 30.51 in 19 mi SSE 8.1 mph - -   Partly Cloudy
6:00 PM 57.2 °F - 44.6 °F 63% 30.51 in 6.2 mi SSE 8.1 mph - N/A   Mostly Cloudy
6:30 PM 59.0 °F - 44.6 °F 59% 30.51 in 6.2 mi SSE 9.2 mph - N/A   Mostly Cloudy
7:00 PM 59 °F - 46 °F 52% 30.51 in - South 11.5 mph - -  
7:00 PM 59.0 °F - 46.4 °F 63% 30.51 in 6.2 mi South 11.5 mph - N/A   Mostly Cloudy
7:30 PM 59.0 °F - 46.4 °F 63% 30.51 in 6.2 mi SSE 12.7 mph - N/A   Scattered Clouds
8:00 PM 58 °F - 47 °F 58% 30.51 in - South 11.5 mph - -  
8:00 PM 57.2 °F - 46.4 °F 67% 30.51 in 6.2 mi South 11.5 mph - N/A   Scattered Clouds
8:30 PM 59.0 °F - 48.2 °F 67% 30.51 in 6.2 mi SSE 12.7 mph - N/A   Scattered Clouds
9:00 PM 58 °F - 47 °F 59% 30.51 in 19 mi South 11.5 mph - -   Partly Cloudy
9:00 PM 57.2 °F - 48.2 °F 72% 30.51 in 6.2 mi South 11.5 mph - N/A   Partly Cloudy
9:30 PM 59.0 °F - 48.2 °F 67% 30.48 in 6.2 mi South 11.5 mph - N/A   Partly Cloudy
10:00 PM 58 °F - 48 °F 61% 30.51 in - South 10.4 mph - -  
10:00 PM 57.2 °F - 48.2 °F 72% 30.48 in 6.2 mi South 10.4 mph - N/A   Scattered Clouds
10:30 PM 55.4 °F - 46.4 °F 72% 30.51 in 6.2 mi SSW 8.1 mph - N/A   Scattered Clouds
11:00 PM 54 °F - 45 °F 62% 30.51 in - NW 8.1 mph - -  
11:00 PM 53.6 °F - 44.6 °F 72% 30.51 in 6.2 mi NW 8.1 mph - N/A   Mostly Cloudy
11:30 PM 51.8 °F - 44.6 °F 76% 30.48 in 6.2 mi WNW 8.1 mph - N/A   Scattered Clouds